TimeMST,TemperatureF,Dew PointF,Humidity,Sea Level PressureIn,VisibilityMPH,Wind Direction,Wind SpeedMPH,Gust SpeedMPH,PrecipitationIn,Events,Conditions,WindDirDegrees,DateUTC
12:56 AM,41.0,18.0,40,29.85,-9999.0,Calm,Calm,-,N/A,,Clear,0,2012-12-30 07:56:00
1:56 AM,45.0,17.1,33,29.82,-9999.0,Calm,Calm,-,N/A,,Mostly Cloudy,0,2012-12-30 08:56:00
2:56 AM,48.0,12.9,24,29.79,-9999.0,Variable,4.6,-,N/A,,Mostly Cloudy,0,2012-12-30 09:56:00
4:56 AM,48.0,12.0,24,29.78,-9999.0,North,-9999.0,-,N/A,,Clear,0,2012-12-30 11:56:00
5:56 AM,48.9,10.0,21,29.78,-9999.0,SSW,10.4,19.6,N/A,,Clear,210,2012-12-30 12:56:00
6:56 AM,48.9,9.0,20,29.78,-9999.0,South,9.2,19.6,N/A,,Clear,190,2012-12-30 13:56:00
7:56 AM,48.9,9.0,20,29.79,-9999.0,South,11.5,23.0,N/A,,Clear,190,2012-12-30 14:56:00
8:56 AM,50.0,10.9,21,29.80,-9999.0,SSW,18.4,24.2,N/A,,Scattered Clouds,200,2012-12-30 15:56:00
9:56 AM,50.0,12.0,22,29.82,-9999.0,SSW,16.1,25.3,N/A,,Clear,200,2012-12-30 16:56:00
10:56 AM,52.0,12.0,20,29.80,-9999.0,SSW,19.6,28.8,N/A,,Partly Cloudy,200,2012-12-30 17:56:00
11:56 AM,53.1,12.0,20,29.77,-9999.0,SSW,21.9,29.9,N/A,,Clear,210,2012-12-30 18:56:00
12:56 PM,52.0,14.0,22,29.73,-9999.0,SSW,19.6,25.3,N/A,,Mostly Cloudy,210,2012-12-30 19:56:00
1:56 PM,52.0,17.1,25,29.68,-9999.0,SSW,19.6,-,N/A,,Clear,210,2012-12-30 20:56:00
2:56 PM,51.1,18.0,27,29.67,-9999.0,SW,19.6,26.5,N/A,,Clear,220,2012-12-30 21:56:00
3:56 PM,48.0,18.0,30,29.70,-9999.0,WSW,19.6,25.3,N/A,,Clear,240,2012-12-30 22:56:00
4:56 PM,46.9,21.0,36,29.68,-9999.0,SSW,18.4,24.2,N/A,,Partly Cloudy,200,2012-12-30 23:56:00
5:56 PM,45.0,23.0,42,29.70,-9999.0,SSW,16.1,25.3,N/A,,Overcast,210,2012-12-31 00:56:00
6:56 PM,37.0,30.9,79,29.78,-9999.0,WSW,16.1,-,N/A,Rain,Light Rain,240,2012-12-31 01:56:00
7:08 PM,35.6,32.0,87,29.90,-9999.0,SW,12.7,-,N/A,Rain,Light Rain,230,2012-12-31 02:08:00
7:23 PM,35.6,32.0,87,29.91,-9999.0,SSW,18.4,25.3,N/A,Snow,Light Snow,210,2012-12-31 02:23:00
7:44 PM,33.8,32.0,93,29.92,-9999.0,WSW,17.3,24.2,N/A,Snow,Light Snow,250,2012-12-31 02:44:00
7:56 PM,34.0,30.9,89,29.80,-9999.0,WSW,11.5,-,N/A,Snow,Light Snow,250,2012-12-31 02:56:00
8:04 PM,33.8,30.2,87,29.92,-9999.0,WSW,10.4,-,N/A,Snow,Light Snow,240,2012-12-31 03:04:00
8:14 PM,33.8,30.2,87,29.92,-9999.0,WSW,11.5,-,N/A,Snow,Snow,240,2012-12-31 03:14:00
8:40 PM,33.8,30.2,87,29.91,-9999.0,SW,16.1,-,N/A,Snow,Light Snow,230,2012-12-31 03:40:00
8:56 PM,34.0,30.9,89,29.80,-9999.0,SW,16.1,-,N/A,,Overcast,230,2012-12-31 03:56:00
9:19 PM,33.8,30.2,87,29.92,-9999.0,WSW,13.8,-,N/A,Snow,Snow,240,2012-12-31 04:19:00
9:44 PM,33.8,30.2,87,29.93,-9999.0,SW,17.3,-,N/A,Snow,Heavy Snow,220,2012-12-31 04:44:00
9:53 PM,33.8,30.2,87,29.93,-9999.0,SW,17.3,-,N/A,Snow,Light Snow,230,2012-12-31 04:53:00
9:56 PM,33.1,30.9,92,29.82,-9999.0,SW,17.3,-,N/A,Snow,Light Snow,220,2012-12-31 04:56:00
10:14 PM,33.8,30.2,87,29.94,-9999.0,SW,20.7,25.3,N/A,Snow,Light Snow,220,2012-12-31 05:14:00
10:56 PM,34.0,30.0,85,29.84,-9999.0,SW,15.0,24.2,N/A,Snow,Light Snow,230,2012-12-31 05:56:00
11:56 PM,34.0,28.9,82,29.83,-9999.0,SW,13.8,24.2,N/A,,Mostly Cloudy,230,2012-12-31 06:56:00